Time,TemperatureF,DewpointF,PressureIn,WindDirection,WindDirectionDegrees,WindSpeedMPH,WindSpeedGustMPH,Humidity,HourlyPrecipIn,Conditions,Clouds,dailyrainin,SolarRadiationWatts/m^2,SoftwareType,DateUTC
2013-01-31 05:00:00,44.0,28.0,-100.00,NW,304,10.0,21.0,54,-99.99,,,0.00,0.000000,,2013-01-31 13:00:00,
2013-01-31 06:00:00,43.0,28.0,-100.00,WNW,295,9.0,19.0,56,-99.99,,,0.00,0.000000,,2013-01-31 14:00:00,
2013-01-31 06:32:00,43.0,28.0,-100.00,WNW,295,9.0,19.0,56,-99.99,,,0.00,0.000000,,2013-01-31 14:32:00,
2013-01-31 06:42:00,43.0,28.0,-100.00,WNW,295,9.0,19.0,56,-99.99,,,0.00,0.000000,,2013-01-31 14:42:00,
2013-01-31 06:52:00,43.0,28.0,-100.00,WNW,295,9.0,19.0,56,-99.99,,,0.00,0.000000,,2013-01-31 14:52:00,
2013-01-31 07:00:00,42.0,26.0,-100.00,WNW,298,8.0,23.0,52,-99.99,,,-99.99,0.000000,,2013-01-31 15:00:00,
2013-01-31 07:32:00,42.0,26.0,-100.00,WNW,298,8.0,23.0,52,-99.99,,,-99.99,0.000000,,2013-01-31 15:32:00,
2013-01-31 07:42:00,42.0,26.0,-100.00,WNW,298,8.0,23.0,52,-99.99,,,-99.99,0.000000,,2013-01-31 15:42:00,
2013-01-31 07:52:00,42.0,26.0,-100.00,WNW,298,8.0,23.0,52,-99.99,,,-99.99,0.000000,,2013-01-31 15:52:00,
2013-01-31 08:00:00,43.0,25.0,-100.00,WNW,297,8.0,18.0,48,-99.99,,,0.00,18.000000,,2013-01-31 16:00:00,
2013-01-31 08:33:00,43.0,25.0,-100.00,WNW,297,8.0,18.0,48,-99.99,,,0.00,18.000000,,2013-01-31 16:33:00,
2013-01-31 08:42:00,43.0,25.0,-100.00,WNW,297,8.0,18.0,48,-99.99,,,0.00,18.000000,,2013-01-31 16:42:00,
2013-01-31 08:52:00,43.0,25.0,-100.00,WNW,297,8.0,18.0,48,-99.99,,,0.00,18.000000,,2013-01-31 16:52:00,
2013-01-31 09:00:00,46.0,26.0,-100.00,WNW,293,8.0,19.0,46,-99.99,,,-99.99,165.000000,,2013-01-31 17:00:00,
2013-01-31 09:32:00,46.0,26.0,-100.00,WNW,293,8.0,19.0,46,-99.99,,,-99.99,165.000000,,2013-01-31 17:32:00,
2013-01-31 09:44:00,46.0,26.0,-100.00,WNW,293,8.0,19.0,46,-99.99,,,-99.99,165.000000,,2013-01-31 17:44:00,
2013-01-31 09:53:00,46.0,26.0,-100.00,WNW,293,8.0,19.0,46,-99.99,,,-99.99,165.000000,,2013-01-31 17:53:00,
2013-01-31 10:00:00,51.0,29.0,-100.00,NW,306,6.0,17.0,43,-99.99,,,-99.99,353.000000,,2013-01-31 18:00:00,
2013-01-31 10:32:00,51.0,29.0,-100.00,NW,306,6.0,17.0,43,-99.99,,,-99.99,353.000000,,2013-01-31 18:32:00,
2013-01-31 10:43:00,51.0,29.0,-100.00,NW,306,6.0,17.0,43,-99.99,,,-99.99,353.000000,,2013-01-31 18:43:00,
2013-01-31 10:52:00,51.0,29.0,-100.00,NW,306,6.0,17.0,43,-99.99,,,-99.99,353.000000,,2013-01-31 18:52:00,
2013-01-31 11:00:00,57.0,32.0,-100.00,NNW,339,1.0,13.0,38,-99.99,,,0.00,483.000000,,2013-01-31 19:00:00,
2013-01-31 11:33:00,57.0,32.0,-100.00,NNW,339,1.0,13.0,38,-99.99,,,0.00,483.000000,,2013-01-31 19:33:00,
2013-01-31 11:42:00,57.0,32.0,-100.00,NNW,339,1.0,13.0,38,-99.99,,,0.00,483.000000,,2013-01-31 19:42:00,
2013-01-31 11:52:00,57.0,32.0,-100.00,NNW,339,1.0,13.0,38,-99.99,,,0.00,483.000000,,2013-01-31 19:52:00,
2013-01-31 12:00:00,58.0,31.0,-100.00,NNE,25,2.0,5.0,36,-99.99,,,0.00,558.000000,,2013-01-31 20:00:00,
2013-01-31 12:22:00,58.0,31.0,-100.00,NNE,25,2.0,5.0,36,-99.99,,,0.00,558.000000,,2013-01-31 20:22:00,
2013-01-31 12:32:00,58.0,31.0,-100.00,NNE,25,2.0,5.0,36,-99.99,,,0.00,558.000000,,2013-01-31 20:32:00,
2013-01-31 12:42:00,58.0,31.0,-100.00,NNE,25,2.0,5.0,36,-99.99,,,0.00,558.000000,,2013-01-31 20:42:00,
2013-01-31 12:52:00,58.0,31.0,-100.00,NNE,25,2.0,5.0,36,-99.99,,,0.00,558.000000,,2013-01-31 20:52:00,
2013-01-31 13:00:00,59.0,34.0,-100.00,NE,54,3.0,7.0,39,-99.99,,,0.00,575.000000,,2013-01-31 21:00:00,
2013-01-31 13:32:00,59.0,34.0,-100.00,NE,54,3.0,7.0,39,-99.99,,,0.00,575.000000,,2013-01-31 21:32:00,
2013-01-31 13:42:00,59.0,34.0,-100.00,NE,54,3.0,7.0,39,-99.99,,,0.00,575.000000,,2013-01-31 21:42:00,
2013-01-31 13:52:00,59.0,34.0,-100.00,NE,54,3.0,7.0,39,-99.99,,,0.00,575.000000,,2013-01-31 21:52:00,
2013-01-31 14:00:00,62.0,35.0,-100.00,ESE,114,2.0,7.0,37,0.00,,,0.00,531.000000,,2013-01-31 22:00:00,
2013-01-31 14:33:00,62.0,35.0,-100.00,ESE,114,2.0,7.0,37,0.00,,,0.00,531.000000,,2013-01-31 22:33:00,
2013-01-31 14:42:00,62.0,35.0,-100.00,ESE,114,2.0,7.0,37,0.00,,,0.00,531.000000,,2013-01-31 22:42:00,
2013-01-31 14:52:00,62.0,35.0,-100.00,ESE,114,2.0,7.0,37,0.00,,,0.00,531.000000,,2013-01-31 22:52:00,
2013-01-31 15:00:00,62.0,37.0,-100.00,SE,134,3.0,7.0,39,0.00,,,0.00,434.000000,,2013-01-31 23:00:00,
2013-01-31 15:32:00,62.0,37.0,-100.00,SE,134,3.0,7.0,39,0.00,,,0.00,434.000000,,2013-01-31 23:32:00,
2013-01-31 15:42:00,62.0,37.0,-100.00,SE,134,3.0,7.0,39,0.00,,,0.00,434.000000,,2013-01-31 23:42:00,
2013-01-31 15:52:00,62.0,37.0,-100.00,SE,134,3.0,7.0,39,0.00,,,0.00,434.000000,,2013-01-31 23:52:00,
2013-01-31 16:00:00,58.0,34.0,-100.00,SE,146,4.0,7.0,40,0.00,,,0.00,231.000000,,2013-02-01 00:00:00,
2013-01-31 16:22:00,58.0,34.0,-100.00,SE,146,4.0,7.0,40,0.00,,,0.00,231.000000,,2013-02-01 00:22:00,
2013-01-31 16:32:00,58.0,34.0,-100.00,SE,146,4.0,7.0,40,0.00,,,0.00,231.000000,,2013-02-01 00:32:00,
2013-01-31 16:42:00,58.0,34.0,-100.00,SE,146,4.0,7.0,40,0.00,,,0.00,231.000000,,2013-02-01 00:42:00,
2013-01-31 16:52:00,58.0,34.0,-100.00,SE,146,4.0,7.0,40,0.00,,,0.00,231.000000,,2013-02-01 00:52:00,
2013-01-31 17:00:00,57.0,34.0,-100.00,SSE,165,5.0,6.0,41,0.00,,,0.00,74.000000,,2013-02-01 01:00:00,
2013-01-31 17:32:00,57.0,34.0,-100.00,SSE,165,5.0,6.0,41,0.00,,,0.00,74.000000,,2013-02-01 01:32:00,
2013-01-31 17:42:00,57.0,34.0,-100.00,SSE,165,5.0,6.0,41,0.00,,,0.00,74.000000,,2013-02-01 01:42:00,
2013-01-31 17:52:00,57.0,34.0,-100.00,SSE,165,5.0,6.0,41,0.00,,,0.00,74.000000,,2013-02-01 01:52:00,
2013-01-31 18:00:00,53.0,32.0,-100.00,SSE,153,4.0,6.0,44,0.00,,,0.00,6.000000,,2013-02-01 02:00:00,
2013-01-31 18:32:00,53.0,32.0,-100.00,SSE,153,4.0,6.0,44,0.00,,,0.00,6.000000,,2013-02-01 02:32:00,
2013-01-31 18:42:00,53.0,32.0,-100.00,SSE,153,4.0,6.0,44,0.00,,,0.00,6.000000,,2013-02-01 02:42:00,
2013-01-31 18:52:00,53.0,32.0,-100.00,SSE,153,4.0,6.0,44,0.00,,,0.00,6.000000,,2013-02-01 02:52:00,
2013-01-31 19:00:00,53.0,32.0,-100.00,NE,43,2.0,4.0,44,0.00,,,0.00,0.000000,,2013-02-01 03:00:00,
2013-01-31 19:33:00,53.0,32.0,-100.00,NE,43,2.0,4.0,44,0.00,,,0.00,0.000000,,2013-02-01 03:33:00,
2013-01-31 19:42:00,53.0,32.0,-100.00,NE,43,2.0,4.0,44,0.00,,,0.00,0.000000,,2013-02-01 03:42:00,
2013-01-31 19:52:00,53.0,32.0,-100.00,NE,43,2.0,4.0,44,0.00,,,0.00,0.000000,,2013-02-01 03:52:00,
2013-01-31 20:00:00,51.0,33.0,-100.00,NW,309,4.0,7.0,49,-99.99,,,0.00,0.000000,,2013-02-01 04:00:00,
2013-01-31 20:32:00,51.0,33.0,-100.00,NW,309,4.0,7.0,49,-99.99,,,0.00,0.000000,,2013-02-01 04:32:00,
2013-01-31 20:42:00,51.0,33.0,-100.00,NW,309,4.0,7.0,49,-99.99,,,0.00,0.000000,,2013-02-01 04:42:00,
2013-01-31 20:52:00,51.0,33.0,-100.00,NW,309,4.0,7.0,49,-99.99,,,0.00,0.000000,,2013-02-01 04:52:00,
2013-01-31 21:00:00,49.0,33.0,-100.00,NW,310,6.0,9.0,53,-99.99,,,0.00,0.000000,,2013-02-01 05:00:00,
2013-01-31 21:32:00,49.0,33.0,-100.00,NW,310,6.0,9.0,53,-99.99,,,0.00,0.000000,,2013-02-01 05:32:00,
2013-01-31 21:42:00,49.0,33.0,-100.00,NW,310,6.0,9.0,53,-99.99,,,0.00,0.000000,,2013-02-01 05:42:00,
2013-01-31 21:52:00,49.0,33.0,-100.00,NW,310,6.0,9.0,53,-99.99,,,0.00,0.000000,,2013-02-01 05:52:00,
2013-01-31 22:00:00,48.0,31.0,-100.00,NW,316,7.0,15.0,52,-99.99,,,0.00,0.000000,,2013-02-01 06:00:00,
2013-01-31 22:32:00,48.0,31.0,-100.00,NW,316,7.0,15.0,52,-99.99,,,0.00,0.000000,,2013-02-01 06:32:00,
2013-01-31 22:42:00,48.0,31.0,-100.00,NW,316,7.0,15.0,52,-99.99,,,0.00,0.000000,,2013-02-01 06:42:00,
2013-01-31 22:52:00,48.0,31.0,-100.00,NW,316,7.0,15.0,52,-99.99,,,0.00,0.000000,,2013-02-01 06:52:00,
2013-01-31 23:00:00,47.0,31.0,-100.00,NW,312,7.0,12.0,54,-99.99,,,0.00,0.000000,,2013-02-01 07:00:00,
2013-01-31 23:22:00,47.0,31.0,-100.00,NW,312,7.0,12.0,54,-99.99,,,0.00,0.000000,,2013-02-01 07:22:00,
2013-01-31 23:32:00,47.0,31.0,-100.00,NW,312,7.0,12.0,54,-99.99,,,0.00,0.000000,,2013-02-01 07:32:00,
2013-01-31 23:42:00,47.0,31.0,-100.00,NW,312,7.0,12.0,54,-99.99,,,0.00,0.000000,,2013-02-01 07:42:00,
2013-01-31 23:52:00,47.0,31.0,-100.00,NW,312,7.0,12.0,54,-99.99,,,0.00,0.000000,,2013-02-01 07:52:00,